Home > Weather > Rastatt > Past weeks

Flag for Germany Weather for the Past 2 Weeks in Rastatt, Baden-Württemberg, Germany

Now
54 °F

Sunny.


Feels Like: 51 °F
Forecast: 40 / 66 °F
Wind: 8 mph from Northeast

Location: Karlsruhe - Baden Wurttemberg

Current Time: May 5, 2016 at 12:03:11 AM

Latest Report: May 4, 2016 at 8:50 PM


Visibility: 10 mi

Pressure: 30.27 "Hg

Humidity: 47%

Dew Point: 34 °F

Location of RastattLocation

Historic Weather in Rastatt — Graph

°F

Rastatt Temperature Yesterday

Maximum temperature yesterday: 61 °F (at 3:50 PM)
Minimum temperature yesterday: 36 °F (at 4:50 AM)
Average temperature yesterday: 52 °F

High & Low Weather Summary for the Past Weeks

 TemperatureHumidityPressure
High70 °F (Apr 21, 3:50 PM)100% (Apr 20, 4:50 AM)30.39 "Hg (Apr 20, 4:50 AM)
Low30 °F (Apr 29, 5:20 AM)31% (May 4, 4:50 PM)29.59 "Hg (Apr 26, 5:50 AM)
Average49 °F73%30.04 "Hg
* Reported Apr 19 7:20 PM — May 4 7:50 PM, Rastatt, Weather by CustomWeather, © 2016

Note: Actual official high and low records may vary slightly from our data, if they occured in-between our weather recording intervals... More about our weather records

Advertising

Rastatt Weather History for the Previous 24 Hours

Scroll right to see more
 ConditionsComfort  
Time TempWeatherWind HumidityBarometerVisibility
7:50 PM
Wed, May 4
57 °FSunny.8 mph39%30.27 "Hg10 mi
7:20 PM59 °FSunny.9 mph34%30.27 "Hg10 mi
6:50 PM59 °FPassing clouds.9 mph34%30.30 "HgN/A
6:20 PM61 °FSunny.10 mph34%30.30 "Hg10 mi
5:50 PM61 °FSunny.10 mph34%30.30 "Hg10 mi
5:20 PM61 °FSunny.10 mph36%30.30 "Hg10 mi
4:50 PM61 °FPassing clouds.10 mph31%30.30 "HgN/A
4:20 PM61 °FPassing clouds.9 mph36%30.30 "HgN/A
3:50 PM61 °FPassing clouds.9 mph42%30.30 "HgN/A
3:20 PM59 °FSunny.8 mph45%30.33 "Hg10 mi
2:50 PM59 °FPassing clouds.9 mph45%30.33 "HgN/A
2:20 PM59 °FPassing clouds.9 mph48%30.33 "HgN/A
12:50 PM57 °FPassing clouds.10 mph44%30.36 "HgN/A
12:20 PM57 °FPassing clouds.9 mph48%30.36 "HgN/A
11:50 AM55 °FPassing clouds.10 mph63%30.36 "HgN/A
11:20 AM54 °FSunny.9 mph67%30.36 "Hg10 mi
10:50 AM54 °FPassing clouds.9 mph72%30.36 "HgN/A
9:50 AM50 °FPassing clouds.8 mph76%30.36 "HgN/A
9:20 AM48 °FSunny.9 mph87%30.36 "Hg10 mi
8:50 AM45 °FLight fog.3 mph100%30.36 "Hg5 mi
8:20 AM43 °FClear.5 mphN/A30.36 "Hg4 mi
7:50 AM41 °FLight fog.3 mphN/A30.36 "HgN/A
7:11 AM39 °FLight fog.No windN/A30.36 "Hg2 mi
6:20 AM37 °FFog.No wind100%30.36 "Hg0 mi
5:50 AM37 °FFog.No wind100%30.36 "Hg0 mi
5:20 AM36 °FFog.No windN/AN/A0 mi
4:50 AM36 °FFog.1 mph100%30.36 "Hg0 mi
Weather by CustomWeather, © 2016

See weather overviewHow to use our weather pages